[[{"header":{"parameterUnit":"m.s-1","parameterCategory":1,"la1":30.2991,"la2":30.254,"lo1":-89.0895,"lo2":-89.0444,"dy":0.0017,"dx":0.0017,"nx":28,"ny":28,"refTime":"2025-08-25T03:00:00:Z","depth":0,"parameterNumber":2,"parameterNumberName":"U-component_of_WINDS"},"data":[0,0,0,0,0,0,0,0,0,0,0,0,0,0,0,0,0,0,0,0,0,0,0,0,0,0,0,0,0,0,0,0,0,0,0,0,0,0,0,0,0,0,0,0,0,0,0,0,0,0,0,0,0,0,0,0,0,0,-1.874,-1.8739,0,-1.8695,-1.8694,-1.8694,-1.8586,-1.8583,-1.8581,-1.8579,-1.8535,-1.8536,-1.8537,0,0,0,0,0,0,0,0,0,0,0,0,0,-1.8736,-1.8737,-1.874,-1.8739,-1.8739,-1.8695,-1.8694,-1.8694,-1.8586,-1.8583,-1.858,-1.8578,-1.8535,-1.8536,-1.8537,0,0,0,0,0,0,0,0,0,0,0,0,0,-1.8719,-1.8737,-1.874,-1.868,-1.8674,-1.8695,-1.8694,-1.8694,-1.8587,-1.8583,-1.858,-1.8577,-1.8534,-1.8536,-1.8537,-1.8614,0,0,-1.8542,-1.8542,0,0,0,0,0,0,0,0,-1.872,-1.872,-1.8689,-1.8684,-1.8677,-1.8642,-1.8677,-1.8667,-1.8587,-1.862,-1.8579,-1.8575,-1.8574,-1.8572,-1.8571,-1.8612,-1.861,-1.8542,-1.8543,-1.8543,-1.8544,0,0,0,0,0,0,0,-1.8722,-1.8721,-1.8722,-1.8689,-1.8682,-1.8656,-1.865,-1.8675,-1.8616,-1.8617,-1.8609,-1.8605,-1.857,-1.857,-1.8569,-1.861,-1.8542,-1.8543,-1.8544,-1.8544,-1.8715,-1.8719,0,0,0,0,0,0,-1.8731,-1.8723,-1.8723,-1.8721,-1.8691,-1.8659,-1.8652,-1.8657,-1.8616,-1.8606,-1.8608,-1.86,-1.8569,-1.8567,-1.8567,-1.8656,-1.8543,-1.8545,-1.8545,-1.8712,-1.8716,-1.872,0,0,0,0,0,0,-1.8731,-1.8732,-1.8725,-1.8719,-1.8717,-1.8663,-1.8669,-1.8658,-1.8657,-1.8609,-1.8598,-1.8618,-1.8566,-1.8565,-1.8604,-1.8653,-1.8545,-1.8546,-1.8707,-1.8713,-1.8718,-1.8835,0,0,0,0,0,0,-1.8732,-1.8733,-1.876,-1.8721,-1.8717,-1.8762,-1.8672,-1.8659,-1.866,-1.8649,-1.8616,-1.8607,-1.8563,-1.8602,-1.8605,-1.8653,-1.8548,-1.8703,-1.871,-1.8716,-1.8826,-1.8843,-1.8858,0,0,0,0,0,-1.8732,-1.8795,-1.8762,-1.8763,-1.875,-1.8765,-1.8763,-1.8711,-1.8664,-1.8693,-1.8662,-1.8608,-1.8647,-1.8607,-1.861,-1.8659,-1.8699,-1.8708,-1.8716,-1.8819,-1.884,-1.8858,0,0,0,0,0,0,-1.8842,-1.8788,-1.8752,-1.8803,-1.879,-1.8746,-1.878,-1.8734,-1.8734,-1.8724,-1.866,-1.8653,-1.8702,-1.8684,-1.864,-1.8733,-1.8665,-1.8674,-1.8742,-1.8762,-1.8778,-1.8781,-1.8549,0,0,0,0,0,-1.8872,-1.8887,-1.884,-1.889,-1.8885,-1.8835,-1.8839,-1.88,-1.8783,-1.8777,-1.8749,-1.8736,-1.8745,-1.8752,-1.8758,-1.8823,-1.8816,-1.8859,-1.8875,-1.8888,-1.8897,-1.8933,-1.8952,-1.8747,-1.8747,-1.8747,0,0,-1.8934,-1.8907,-1.892,-1.8912,-1.8896,-1.8915,-1.883,-1.8852,-1.8866,-1.878,-1.8815,-1.8795,-1.8776,-1.8829,-1.8851,-1.8816,-1.8952,-1.8899,-1.891,-1.8911,-1.8943,-1.8963,-1.898,-1.8753,-1.8752,-1.8751,0,0,-1.9058,-1.9038,-1.9079,-1.9066,-1.9044,-1.901,-1.902,-1.8985,-1.8968,-1.9002,-1.8939,-1.8955,-1.8972,-1.8962,-1.8959,-1.9083,-1.9034,-1.9087,-1.9171,-1.9206,-1.9222,-1.9236,-1.9282,-1.9299,-1.9095,-1.9096,-1.9096,0,-1.9138,-1.9163,-1.9106,-1.9133,-1.9132,-1.9056,-1.9098,-1.9088,-1.907,-1.9072,-1.9032,-1.9054,-1.9036,-1.9087,-1.9117,-1.9117,-1.9128,-1.909,-1.9224,-1.9238,-1.925,-1.9293,-1.9311,-1.9102,-1.9102,-1.9101,-1.91,0,-1.9264,-1.9282,-1.9318,-1.9303,-1.9306,-1.934,-1.9291,-1.9301,-1.9263,-1.9234,-1.9272,-1.9248,-1.9249,-1.9258,-1.922,-1.9305,-1.9284,-1.9236,-1.9166,-1.9277,-1.9317,-1.9333,-1.9112,-1.9109,-1.9107,-1.9106,0,0,-1.9454,-1.9408,-1.9422,-1.9415,-1.9387,-1.9401,-1.9433,-1.9434,-1.9445,-1.9436,-1.9463,-1.9481,-1.9437,-1.9434,-1.9395,-1.9427,-1.9529,-1.9375,-1.9373,-1.9406,-1.9623,-1.966,-1.968,-1.9497,-1.95,-1.9502,-1.9625,0,-1.9571,-1.9623,-1.9574,-1.9636,-1.9654,-1.9583,-1.9612,-1.9599,-1.9574,-1.9586,-1.9558,-1.9573,-1.9513,-1.9511,-1.9539,-1.9511,-1.9572,-1.9501,-1.9523,-1.9525,-1.9531,-1.97,-1.9739,-1.9856,-1.964,-1.9643,-1.9644,0,-1.9714,-1.9712,-1.9776,-1.9746,-1.9752,-1.9778,-1.9777,-1.9789,-1.9774,-1.9753,-1.9752,-1.9706,-1.9738,-1.967,-1.9715,-1.9668,-1.9674,-1.9663,-1.9666,-1.9666,-1.9592,-1.9707,-1.9892,-1.991,-1.9668,-1.9666,-1.9664,0,-1.9848,-1.9861,-1.9902,-1.9898,-1.9864,-1.9885,-1.9871,-1.9853,-1.9857,-1.9857,-1.9859,-1.9863,-1.9865,-1.9869,-1.9826,-1.978,-1.9877,-1.9805,-1.9863,-1.9864,-1.9886,-1.9885,-2.0076,-1.9889,-1.9889,-1.9889,-1.9888,0,-1.9984,-2.0027,-1.9962,-1.9987,-2.0034,-1.9978,-2.0026,-2.0006,-1.9991,-2.0012,-1.9951,-1.9973,-1.9914,-1.993,-1.9897,-1.9941,-1.9942,-1.9927,-1.9918,-1.9933,-1.9935,-1.9937,-1.9928,-1.9893,-1.9892,-1.9891,-1.9891,0,-2.0141,-2.0099,-2.0139,-2.0104,-2.0097,-2.0133,-2.0103,-2.0127,-2.0098,-2.0126,-2.013,-2.0086,-2.0102,-2.006,-2.0069,-2.0047,-2.011,-2.0087,-2.0116,-2.0109,-2.0169,-2.0165,-2.0368,-2.0393,-2.019,-2.0192,-2.0194,0,-2.0231,-2.0262,-2.0231,-2.0241,-2.0232,-2.0248,-2.0253,-2.0201,-2.0208,-2.0195,-2.0221,-2.0232,-2.0238,-2.0268,-2.0238,-2.0246,-2.0224,-2.0295,-2.0225,-2.024,-2.0227,-2.0226,-2.023,-2.0309,-2.0312,-2.0314,-2.0316,0,-2.0396,-2.0375,-2.0383,-2.0386,-2.0393,-2.0393,-2.0388,-2.0401,-2.0345,-2.0357,-2.0373,-2.0378,-2.0389,-2.0402,-2.0404,-2.0392,-2.0346,-2.0338,-2.0352,-2.0368,-2.0384,-2.0378,-2.0156,-2.0334,-2.0332,-2.033,-2.0329,-2.0329,-2.0523,-2.0549,-2.0531,-2.0544,-2.0535,-2.0533,-2.0554,-2.0529,-2.0541,-2.0546,-2.0515,-2.0538,-2.0525,-2.0523,-2.0516,-2.0535,-2.0503,-2.0523,-2.0528,-2.0534,-2.0545,-2.0381,-2.0535,-2.0535,-2.0534,-2.0534,-2.0533,0,-2.0686,-2.0672,-2.0684,-2.068,-2.0691,-2.0646,-2.064,-2.0652,-2.0674,-2.0665,-2.0673,-2.0693,-2.0706,-2.0678,-2.0688,-2.0708,-2.0688,-2.0713,-2.0711,-2.071,-2.0572,-2.056,-2.073,-2.073,-2.073,-2.073,-2.073,-2.0729,-2.0772,-2.0813,-2.0791,-2.0828,-2.0814,-2.0836,-2.0837,-2.0836,-2.0829,-2.0854,-2.0865,-2.0846,-2.0831,-2.0839,-2.085,-2.0841,-2.0848,-2.0881,-2.0866,-2.0738,-2.0719,-2.0701,-2.0689,-2.0883,-2.0883,-2.1002,-2.1003,-2.1004]},{"header":{"parameterUnit":"m.s-1","parameterCategory":1,"la1":30.2991,"la2":30.254,"lo1":-89.0895,"lo2":-89.0444,"dy":0.0017,"dx":0.0017,"nx":28,"ny":28,"refTime":"2025-08-25T03:00:00:Z","depth":0,"parameterNumber":3,"parameterNumberName":"V-component_of_WINDS"},"data":[0,0,0,0,0,0,0,0,0,0,0,0,0,0,0,0,0,0,0,0,0,0,0,0,0,0,0,0,0,0,0,0,0,0,0,0,0,0,0,0,0,0,0,0,0,0,0,0,0,0,0,0,0,0,0,0,0,0,2.5663,2.5663,0,2.5661,2.5661,2.5661,2.5671,2.5672,2.5672,2.5672,2.5668,2.5667,2.5667,0,0,0,0,0,0,0,0,0,0,0,0,0,2.5674,2.5674,2.5663,2.5663,2.5663,2.5661,2.5661,2.5661,2.5671,2.5672,2.5672,2.5672,2.5668,2.5667,2.5667,0,0,0,0,0,0,0,0,0,0,0,0,0,2.5671,2.5674,2.5663,2.5668,2.5669,2.5661,2.5661,2.5661,2.5671,2.5672,2.5672,2.5672,2.5668,2.5667,2.5667,2.5654,0,0,2.5665,2.5665,0,0,0,0,0,0,0,0,2.5671,2.567,2.5667,2.5668,2.5668,2.5667,2.5664,2.5659,2.5671,2.567,2.5672,2.5673,2.5667,2.5667,2.5665,2.5654,2.5654,2.5665,2.5665,2.5664,2.5664,0,0,0,0,0,0,0,2.5671,2.567,2.5662,2.5667,2.5668,2.567,2.567,2.5663,2.5666,2.567,2.5671,2.5671,2.5667,2.5666,2.5665,2.5654,2.5665,2.5665,2.5664,2.5664,2.5631,2.5631,0,0,0,0,0,0,2.5671,2.567,2.5663,2.5662,2.5671,2.5669,2.5669,2.5667,2.5666,2.5666,2.567,2.5671,2.5666,2.5666,2.5665,2.5649,2.5664,2.5664,2.5664,2.5632,2.5631,2.5631,0,0,0,0,0,0,2.5671,2.567,2.5663,2.5667,2.5666,2.5669,2.5666,2.5667,2.5665,2.5666,2.5667,2.5668,2.5667,2.5666,2.5657,2.5649,2.5664,2.5663,2.5633,2.5632,2.5631,2.5618,0,0,0,0,0,0,2.5671,2.567,2.5666,2.5667,2.5666,2.5655,2.5666,2.5666,2.5664,2.5665,2.5664,2.5664,2.5667,2.5658,2.5656,2.5649,2.5663,2.5633,2.5632,2.5631,2.5619,2.5617,2.5615,0,0,0,0,0,2.5672,2.5662,2.5665,2.5664,2.566,2.5655,2.5654,2.5658,2.5664,2.5659,2.566,2.5664,2.5651,2.5657,2.5655,2.5647,2.5634,2.5633,2.5631,2.562,2.5617,2.5615,0,0,0,0,0,0,2.5659,2.5662,2.5666,2.5656,2.5655,2.5656,2.565,2.5655,2.5652,2.5653,2.5657,2.5657,2.5647,2.5646,2.5653,2.5635,2.5643,2.5642,2.5635,2.5632,2.563,2.563,2.5662,0,0,0,0,0,2.5656,2.5652,2.5654,2.5645,2.5644,2.5648,2.5645,2.5648,2.5647,2.5646,2.5647,2.5645,2.564,2.5636,2.5632,2.562,2.5619,2.5614,2.5612,2.561,2.5608,2.56,2.5598,2.5627,2.5627,2.5627,0,0,2.5648,2.5649,2.5646,2.5643,2.5642,2.5637,2.5647,2.5641,2.5637,2.5645,2.5637,2.5637,2.5635,2.5624,2.5619,2.5623,2.56,2.5608,2.5607,2.5606,2.5599,2.5596,2.5594,2.5626,2.5626,2.5627,0,0,2.563,2.5631,2.5623,2.5623,2.5622,2.5624,2.5623,2.5623,2.5624,2.5615,2.5621,2.5616,2.5608,2.5606,2.5604,2.5586,2.559,2.5585,2.5573,2.5566,2.5564,2.5562,2.5554,2.5551,2.5583,2.5583,2.5583,0,2.562,2.5613,2.5618,2.5612,2.561,2.5619,2.561,2.5609,2.5607,2.5605,2.561,2.56,2.5599,2.5588,2.5583,2.5582,2.5579,2.5584,2.5564,2.5562,2.556,2.5552,2.555,2.5583,2.5583,2.5583,2.5583,0,2.5599,2.5594,2.5588,2.5586,2.5584,2.5577,2.5581,2.5578,2.5581,2.5583,2.5574,2.5573,2.5569,2.5567,2.557,2.5555,2.5557,2.5563,2.5571,2.5556,2.5549,2.5546,2.5581,2.5582,2.5582,2.5582,0,0,2.5572,2.5575,2.5572,2.5571,2.5571,2.5567,2.556,2.5556,2.5553,2.5551,2.5545,2.5538,2.5543,2.5541,2.5544,2.5538,2.5522,2.5544,2.5544,2.5539,2.5504,2.5498,2.5495,2.5525,2.5525,2.5524,2.5504,0,2.5554,2.5542,2.5548,2.5535,2.553,2.5538,2.5532,2.5531,2.5532,2.5528,2.5529,2.5524,2.5532,2.553,2.5525,2.5525,2.5515,2.5527,2.5518,2.5517,2.5516,2.5492,2.5486,2.5466,2.5501,2.5501,2.55,0,2.5531,2.5528,2.5516,2.5516,2.5515,2.5509,2.5505,2.5502,2.55,2.5502,2.5499,2.5504,2.5496,2.5506,2.5495,2.5503,2.55,2.5499,2.5499,2.5496,2.5506,2.5487,2.546,2.5456,2.5496,2.5497,2.5497,0,2.551,2.5504,2.5496,2.5495,2.5496,2.5492,2.5492,2.5492,2.5489,2.5486,2.5484,2.548,2.5477,2.5474,2.5477,2.5484,2.5465,2.5475,2.5464,2.5464,2.5458,2.5458,2.5428,2.5459,2.5459,2.5459,2.5459,0,2.5488,2.5479,2.5487,2.5481,2.5471,2.5478,2.5468,2.5469,2.5468,2.5462,2.547,2.5464,2.5469,2.5464,2.5466,2.5455,2.5455,2.5455,2.5455,2.5453,2.5453,2.5449,2.545,2.5458,2.5459,2.5459,2.5459,0,2.5463,2.5468,2.5458,2.5461,2.5461,2.5454,2.5455,2.545,2.5452,2.5445,2.5443,2.5446,2.544,2.5444,2.5437,2.5439,2.5424,2.5428,2.5425,2.5425,2.5413,2.5414,2.5379,2.5374,2.541,2.5409,2.5409,0,2.5447,2.5441,2.5443,2.544,2.544,2.5435,2.5432,2.5438,2.5435,2.5433,2.5428,2.5423,2.5418,2.5408,2.5409,2.5404,2.5406,2.5394,2.5405,2.5403,2.5403,2.5403,2.5402,2.5391,2.5391,2.5391,2.539,0,2.5419,2.5422,2.5418,2.5415,2.5412,2.541,2.5408,2.5405,2.5411,2.5407,2.5401,2.5398,2.5392,2.5386,2.5382,2.5381,2.5386,2.5387,2.5384,2.5381,2.5379,2.5378,2.5417,2.5387,2.5388,2.5388,2.5388,2.5388,2.5397,2.5391,2.5391,2.5387,2.5387,2.5385,2.538,2.5382,2.5377,2.5373,2.5377,2.537,2.5368,2.5363,2.5362,2.5356,2.536,2.5356,2.5355,2.5353,2.5351,2.5382,2.5355,2.5355,2.5355,2.5355,2.5355,0,2.5367,2.5368,2.5364,2.5362,2.5358,2.5365,2.5364,2.536,2.5353,2.5352,2.5348,2.5341,2.5336,2.5337,2.5331,2.5326,2.5328,2.5324,2.5323,2.5323,2.5348,2.535,2.5322,2.5322,2.5322,2.5322,2.5322,2.5322,2.5351,2.5341,2.5344,2.5334,2.5335,2.5329,2.5327,2.5325,2.5324,2.5316,2.5312,2.5313,2.5313,2.5308,2.5302,2.5303,2.53,2.5294,2.5295,2.5318,2.5321,2.5324,2.5326,2.5294,2.5294,2.5271,2.527,2.527]}]]